Weather in Ivanivka

Ukraine / Kharkiv Region     49°38′07″N   36°54′15″E
temp.,
°C
wind,
m/s
gust,
m/s
humid.,
%
clouds,
%
prec.,
mm/h
press.,
hPa
HPBL,
m
16 september, thu
thu1600:00+11nnw23465 0.0 101722
03:00+9nnw225446 0.0 101713
06:00+9nnw3459100 0.0 101860
09:00+14n46440 0.0 1018547
12:00+18n45349 0.0 10181512
15:00+20n44270 0.0 10171712
18:00+17n34300 0.0 101888
21:00+12ne33390 0.0 101939
17 september, fri
fri1700:00+10e334221 0.0 101923
03:00+9ese224418 0.0 101910
06:00+8se11477 0.0 101810
09:00+15se223269 0.0 1018297
12:00+20ssw222465 0.0 10161443
15:00+22wsw222378 0.0 10151901
18:00+19ne3429100 0.0 101472
21:00+15ene71239100 0.0 1015334
18 september, sat
sat1800:00+15e71242100 0.0 1014348
03:00+14ese61141100 0.0 1014364
06:00+14e61046100 0.0 1015388
09:00+15ese71149100 0.0 1016513
12:00+20ese7933100 0.0 10151057
15:00+24se782387 0.0 10132326
18:00+18e101443100 0.0 1013560
21:00+15e91558100 0.0 1014549
19 september, sun
sun1900:00+14ese71353100 0.0 1014430
03:00+14ese61047100 0.0 1014349
06:00+14e4845100 0.0 1013357
09:00+14e3653100 0.1 1013304
12:00+14ne2355100 0.6 1013212
15:00+14ene2373100 1.2 1012144
18:00+14ne1188100 1.0 101141
21:00+12nne1192100 1.0 101111
20 september, mon
mon2000:00+11e119313 0.0 101010
03:00+11e339536 0.0 100938
06:00+11ese469498 0.2 1008121
09:00+14ssw3685100 0.6 1008334
12:00+19wsw6858100 0.8 10071341
15:00+16wsw71064100 1.2 1008948
18:00+13sw466710 0.0 1009410
21:00+11wsw3772100 0.0 1010462